Regional Weather Roundup
Issued by NWS Albany, NY

Home | Current Version | Previous Version | Text Only | Print | Product List | Glossary On
Versions: 1 2 3 4 5 6 7 8 9 10 11 12 13 14 15 16 17 18 19 20 21 22 23 24 25 26 27 28 29 30 31 32 33 34 35 36 37 38 39 40 41 42 43 44 45 46 47 48 49 50
000
ASUS41 KALY 071310
RWRALY

NEW YORK STATE HOURLY WEATHER ROUNDUP
NATIONAL WEATHER SERVICE ALBANY NY
900 AM EDT TUE JUL 07 2015

NOTE: "FAIR" INDICATES FEW OR NO CLOUDS BELOW 12,000 FEET WITH NO
SIGNIFICANT WEATHER AND/OR NO OBSTRUCTIONS TO VISIBILITY.

NYZ032-033-038>043-046>054-057>066-NYZ062>081-071400-
EAST


CITY           SKY/WX    TMP DP  RH WIND       PRES   REMARKS
ALBANY         CLOUDY    77  68  73 S9        30.03S
GLENS FALLS    PTSUNNY   74  67  78 S5        30.02F
POUGHKEEPSIE   PTSUNNY   78  71  79 SE6       30.03S
NEWBURGH       PTSUNNY   75  72  88 VRB6      30.06S
MONTGOMERY       N/A    N/A N/A N/A MISG      30.04S
WHITE PLAINS   PTSUNNY   77  72  84 SE8       30.05F
ISLIP          DRIZZLE   76  72  87 S9        30.06R
NEW YORK CITY  PTSUNNY   79  72  79 S10       30.04S
CENTRAL PARK   PTSUNNY   80  71  74 VRB6      30.07S
$$

NYZ005>009-017-018-044>046-055-056-071400-
CENTRAL


CITY           SKY/WX    TMP DP  RH WIND       PRES   REMARKS
FULTON         CLOUDY    74  69  85 CALM      29.95S
SYRACUSE       CLOUDY    77  70  79 S8        29.94F
ROME           LGT RAIN  71  69  93 SE9       29.99F
ELMIRA         CLOUDY    77  70  79 SW3       29.98F
BINGHAMTON     CLOUDY    70  68  93 S6        30.04F
MONTICELLO     CLOUDY    70  70 100 S5        30.09R
$$

NYZ026>034-041>043-071400-
NORTH


CITY           SKY/WX    TMP DP  RH WIND       PRES   REMARKS
WATERTOWN      LGT RAIN  74  68  81 S8        29.93F
FORT DRUM      NOT AVBL
MASSENA        CLOUDY    77  68  73 S12       29.93S
SARANAC LAKE   CLOUDY    72  65  78 S10       30.00F
PLATTSBURGH    MOSUNNY   72  66  81 S8        29.97F
$$

NYZ001>004-010>016-019>021-071400-
WEST


CITY           SKY/WX    TMP DP  RH WIND       PRES   REMARKS
NIAGARA FALLS  CLOUDY    75  66  73 SW12      29.91F
BUFFALO        PTSUNNY   76  65  68 S13       29.93F
DUNKIRK        PTSUNNY   75  66  73 S10G22    29.94F
JAMESTOWN      MOSUNNY   70  63  78 S7        30.02S
WELLSVILLE     MOSUNNY   72  65  78 S9        30.05F
ROCHESTER      MOSUNNY   77  69  76 SW12      29.93F
PENN YAN       CLOUDY    74  68  81 S7        29.98S
$$

             KEY
       WCI = WIND CHILL INDEX
       VSB = VISIBILITY
       HX  = HEAT INDEX
$$


USA.gov is the U.S. government's official web portal to all federal, state and local government web resources and services.